1499716800.92,5618,17.44,74194.5,8.67,7.55,7.69,0,*41
1499716802.12,5619,17.44,74188.3,8.69,7.47,7.59,0,*4E
1499716803.32,5620,17.38,74196.0,8.67,7.45,7.55,0,*44
1499716804.52,5621,17.44,74198.8,8.67,7.55,7.59,0,*48
1499716805.7,5622,17.44,74210.8,8.69,7.59,7.59,0,*49
1499716806.92,5623,17.44,74208.0,8.69,7.65,7.69,0,*44
1499716808.13,5624,17.44,74206.5,8.69,7.55,7.65,0,*4C
1499716809.36,5625,17.44,74194.3,8.69,7.69,7.77,0,*41
1499716810.61,5626,17.44,74188.0,8.67,7.65,7.69,0,*4F
1499716811.83,5627,17.44,74194.5,8.69,7.69,7.77,0,*43
1499716813.04,5628,17.44,74188.0,8.69,7.77,7.79,0,*4D
1499716814.29,5629,17.44,74178.5,8.67,7.69,7.69,0,*4C
1499716815.5,5630,17.44,74176.8,8.69,7.79,7.77,0,*44
1499716816.73,5631,17.44,74172.0,8.69,7.77,7.77,0,*4B
1499716817.96,5632,17.44,74164.8,8.69,7.65,7.69,0,*44
1499716819.18,5633,17.44,74168.5,8.69,7.69,7.77,0,*46
1499716820.41,5634,17.44,74166.3,8.69,7.69,7.77,0,*41
1499716821.65,5635,17.44,74164.8,8.69,7.77,7.77,0,*4F
1499716822.87,5636,17.38,74160.5,8.71,7.79,7.83,0,*40
1499716824.1,5637,17.44,74162.5,8.69,7.77,7.77,0,*4D
1499716825.34,5638,17.38,74160.0,8.71,7.83,7.83,0,*4B
1499716826.58,5639,17.38,74162.5,8.71,7.91,7.91,0,*4A
1499716827.82,5640,17.38,74162.8,8.71,7.83,7.87,0,*40
1499716829.04,5641,17.38,74162.3,8.69,7.87,7.87,0,*4C
1499716830.29,5642,17.44,74166.3,8.71,7.91,7.83,0,*45
1499716831.46,5643,17.38,74164.0,8.73,8.01,8.01,0,*45
1499716832.71,5644,17.44,74164.5,8.71,7.95,7.95,0,*40
1499716833.96,5645,17.38,74162.3,8.71,7.95,7.95,0,*41
1499716835.15,5646,17.44,74168.0,8.75,8.01,8.09,0,*4E
1499716836.35,5647,17.44,74168.5,8.71,8.01,8.05,0,*47
1499716837.55,5648,17.38,74168.8,8.71,8.01,8.01,0,*4C
1499716838.8,5649,17.44,74174.5,8.71,7.95,7.95,0,*4D
1499716840.02,5650,17.44,74174.5,8.71,7.79,7.83,0,*40
1499716841.25,5651,17.44,74166.5,8.69,7.69,7.77,0,*42
1499716842.47,5652,17.44,74168.3,8.75,7.79,7.87,0,*42
1499716843.71,5653,17.44,74170.0,8.71,7.83,7.83,0,*46
1499716844.93,5654,17.44,74174.8,8.71,7.79,7.91,0,*47
1499716846.18,5655,17.44,74172.8,8.71,7.91,7.95,0,*44
1499716847.42,5656,17.38,74176.5,8.71,7.91,7.91,0,*43
1499716848.67,5657,17.44,74178.5,8.71,7.95,7.91,0,*46
1499716849.92,5658,17.44,74172.3,8.71,7.95,7.95,0,*4D
1499716851.17,5659,17.44,74168.8,8.71,7.95,7.95,0,*4C
1499716852.39,5660,17.44,74174.8,8.71,7.95,8.01,0,*44
1499716853.65,5661,17.38,74170.5,8.71,7.95,7.95,0,*47
1499716854.9,5662,17.44,74166.5,8.71,7.95,7.95,0,*44
1499716856.12,5663,17.44,74162.3,8.71,8.01,7.95,0,*47
1499716857.31,5664,17.44,74158.0,8.73,7.97,7.91,0,*46
1499716858.56,5665,17.44,74154.3,8.71,7.91,7.95,0,*47
1499716859.72,5666,17.44,74148.8,8.73,7.97,8.05,0,*46
1499716860.95,5667,17.44,74156.5,8.71,7.95,8.01,0,*43
1499716862.17,5668,17.38,74160.3,8.71,8.01,7.95,0,*4C
1499716863.37,5669,17.38,74162.8,8.71,8.01,8.01,0,*4F
1499716864.53,5670,17.38,74160.8,8.73,7.97,8.05,0,*41
1499716865.7,5671,17.38,74158.0,8.73,7.97,7.97,0,*44
1499716866.95,5672,17.44,74154.0,8.71,7.95,7.95,0,*45
1499716868.11,5673,17.44,74148.0,8.73,8.05,8.05,0,*46
1499716869.28,5674,17.38,74142.0,8.73,8.05,8.05,0,*41
1499716870.53,5675,17.44,74140.3,8.71,7.95,7.95,0,*42
1499716871.76,5676,17.44,74136.0,8.71,8.01,7.95,0,*43
1499716872.98,5677,17.44,74130.5,8.71,7.95,8.01,0,*42
1499716874.17,5678,17.38,74132.8,8.73,7.95,7.97,0,*4F
1499716875.4,5679,17.38,74136.5,8.71,7.95,8.01,0,*4C
1499716876.57,5680,17.44,74146.8,8.73,8.05,8.05,0,*4A
1499716877.76,5681,17.38,74150.0,8.71,8.01,8.01,0,*49
1499716878.98,5682,17.38,74154.5,8.73,7.87,7.95,0,*4B
1499716880.21,5683,17.38,74176.0,8.73,7.73,7.77,0,*4D
1499716881.4,5684,17.44,74166.3,8.73,7.95,7.97,0,*4C
1499716882.57,5685,17.44,74160.0,8.73,8.05,7.97,0,*4B
1499716883.79,5686,17.44,74182.3,8.73,7.73,7.77,0,*48
1499716885.01,5687,17.38,74166.8,8.73,7.77,7.83,0,*46
1499716886.22,5688,17.44,74174.8,8.73,7.83,7.87,0,*46
1499716887.39,5689,17.44,74172.8,8.73,8.05,8.05,0,*43
1499716888.58,5690,17.38,74176.8,8.73,8.05,8.13,0,*4C
1499716889.76,5691,17.38,74170.5,8.73,8.23,8.23,0,*4A
1499716890.98,5692,17.38,74162.8,8.73,8.41,8.41,0,*49
1499716892.2,5693,17.44,74156.8,8.75,8.45,8.55,0,*4F
1499716893.39,5694,17.38,74158.5,8.75,8.45,8.45,0,*49
1499716894.64,5695,17.38,74158.8,8.77,8.37,8.33,0,*4E
1499716895.89,5696,17.38,74156.3,8.75,8.33,8.37,0,*4F
1499716897.12,5697,17.44,74160.0,8.79,8.41,8.51,0,*47
1499716898.36,5698,17.44,74162.0,8.75,8.33,8.37,0,*41
1499716899.57,5699,17.44,74172.8,8.77,8.27,8.27,0,*46
1499716900.78,5700,17.38,74166.5,8.77,8.27,8.27,0,*47
1499716902.01,5701,17.44,74170.8,8.79,8.41,8.41,0,*48
1499716903.23,5702,17.44,74182.3,8.77,8.45,8.37,0,*40
1499716904.41,5703,17.38,74178.8,8.79,8.27,8.19,0,*47
1499716905.67,5704,17.38,74162.8,8.77,8.37,8.37,0,*43
1499716906.92,5705,17.44,74172.8,8.77,8.33,8.37,0,*46
1499716908.12,5706,17.38,74184.3,8.79,8.29,8.27,0,*41
1499716909.35,5707,17.38,74194.0,8.77,8.13,8.15,0,*46
1499716910.57,5708,17.44,74190.5,8.77,8.13,8.15,0,*49
1499716911.78,5709,17.44,74200.0,8.79,8.15,8.13,0,*46
1499716912.95,5710,17.44,74190.0,8.79,8.05,8.01,0,*4C
1499716914.13,5711,17.38,74188.3,8.79,8.19,8.15,0,*45
1499716915.33,5712,17.44,74178.3,8.81,8.19,8.15,0,*41
1499716916.51,5713,17.44,74186.8,8.79,8.15,8.15,0,*4B
1499716917.69,5714,17.44,74194.0,8.79,8.15,8.19,0,*40
1499716918.87,5715,17.44,74198.5,8.79,8.15,8.15,0,*4D
1499716920.05,5716,17.44,74182.3,8.79,8.15,8.15,0,*4E
1499716921.25,5717,17.44,74182.8,8.77,8.09,8.01,0,*49
1499716922.45,5718,17.38,74190.8,8.79,8.05,8.13,0,*47
1499716923.65,5719,17.44,74202.0,8.77,8.09,8.09,0,*4F
1499716924.88,5720,17.44,74206.8,8.77,8.13,8.09,0,*4E
1499716926.05,5721,17.44,74204.3,8.79,8.19,8.19,0,*4A
1499716927.23,5722,17.44,74196.5,8.79,8.15,8.19,0,*45
1499716928.42,5723,17.44,74178.3,8.79,8.27,8.27,0,*48
1499716929.63,5724,17.38,74172.0,8.79,8.29,8.29,0,*4F
1499716930.81,5725,17.38,74160.8,8.79,8.87,8.87,0,*4E
1499716932.06,5726,17.44,74170.3,8.81,8.93,8.97,0,*4E
1499716933.26,5727,17.38,74156.0,8.81,8.79,8.83,0,*4E
1499716934.5,5728,17.38,74148.3,8.81,8.51,8.47,0,*43
1499716935.76,5729,17.38,74154.3,8.81,8.41,8.37,0,*44
1499716936.95,5730,17.38,74146.8,8.85,8.61,8.61,0,*49
1499716938.12,5731,17.44,74146.3,8.87,8.79,8.79,0,*4A
1499716939.32,5732,17.44,74156.8,8.87,8.87,8.89,0,*47
1499716940.5,5733,17.44,74152.3,8.87,8.87,8.87,0,*48
1499716941.69,5734,17.38,74146.8,8.87,8.75,8.79,0,*43
1499716942.9,5735,17.38,74150.3,8.87,8.75,8.75,0,*4E
1499716944.11,5736,17.38,74152.3,8.87,8.75,8.75,0,*4D
1499716945.27,5737,17.44,74152.0,8.87,8.69,8.69,0,*4C
1499716946.44,5738,17.44,74152.5,8.87,8.69,8.65,0,*4F
1499716947.62,5739,17.44,74154.3,8.87,8.65,8.75,0,*43
1499716948.81,5740,17.38,74134.8,8.89,8.69,8.69,0,*42
1499716950.01,5741,17.38,74128.0,8.91,8.79,8.71,0,*42
1499716951.17,5742,17.38,74124.3,8.91,8.69,8.69,0,*49
1499716952.37,5743,17.38,74130.3,8.91,8.61,8.59,0,*43
1499716953.54,5744,17.38,74134.8,8.91,8.61,8.61,0,*4F
1499716954.75,5745,17.38,74136.0,8.89,8.59,8.65,0,*48
1499716955.97,5746,17.38,74136.0,8.91,8.51,8.59,0,*45
1499716957.19,5747,17.44,74140.8,8.93,8.69,8.59,0,*4D
1499716958.4,5748,17.38,74138.8,8.91,8.71,8.71,0,*43
1499716959.6,5749,17.38,74150.8,8.91,8.71,8.79,0,*4A
1499716960.81,5750,17.38,74148.8,8.93,8.71,8.83,0,*45
1499716962.05,5751,17.38,74162.8,8.93,8.71,8.71,0,*49
1499716963.29,5752,17.38,74166.5,8.93,8.71,8.71,0,*4A
1499716964.51,5753,17.44,74164.5,8.93,8.61,8.59,0,*40
1499716965.75,5754,17.38,74166.3,8.93,8.37,8.51,0,*4C
1499716967.0,5755,17.38,74156.8,8.93,8.47,8.51,0,*4A
1499716968.22,5756,17.38,74148.3,8.95,8.47,8.51,0,*4F
1499716969.46,5757,17.38,74146.0,8.93,8.51,8.59,0,*47
1499716970.71,5758,17.38,74150.5,8.93,8.59,8.59,0,*40
1499716971.91,5759,17.38,74150.8,8.95,8.55,8.61,0,*40
1499716973.13,5760,17.38,74154.5,8.95,8.55,8.51,0,*49
1499716974.37,5761,17.38,74160.0,8.93,8.47,8.47,0,*4A
1499716975.62,5762,17.44,74160.0,8.93,8.47,8.47,0,*49
1499716976.86,5763,17.38,74162.0,8.93,8.41,8.47,0,*4E
1499716978.08,5764,17.44,74162.0,8.95,8.41,8.51,0,*48
1499716979.33,5765,17.44,74160.5,8.93,8.41,8.47,0,*48
1499716980.57,5766,17.38,74144.3,8.93,8.41,8.47,0,*4B
1499716981.79,5767,17.44,74158.5,8.95,8.51,8.51,0,*4A
1499716983.01,5768,17.38,74168.3,8.95,8.51,8.51,0,*45
1499716984.25,5769,17.38,74170.0,8.93,8.41,8.41,0,*42
1499716985.5,5770,17.38,74168.3,8.93,8.41,8.41,0,*4A
1499716986.75,5771,17.38,74170.8,8.93,8.41,8.41,0,*4B
1499716987.94,5772,17.44,74172.5,8.95,8.51,8.45,0,*4B
1499716989.16,5773,17.38,74172.8,8.95,8.51,8.55,0,*4B
1499716990.38,5774,17.38,74172.5,8.95,8.51,8.55,0,*4C
1499716991.6,5775,17.44,74174.0,8.95,8.51,8.51,0,*49
1499716992.81,5776,17.44,74178.8,8.95,8.51,8.51,0,*4A
1499716994.01,5777,17.38,74176.5,8.95,8.41,8.45,0,*4F
1499716995.23,5778,17.38,74178.3,8.95,8.51,8.55,0,*40
1499716996.45,5779,17.38,74172.5,8.95,8.51,8.55,0,*41
1499716997.67,5780,17.38,74168.3,8.95,8.51,8.51,0,*43
1499716998.86,5781,17.38,74156.5,8.95,8.41,8.45,0,*46
1499717000.03,5782,17.38,74160.5,8.99,8.45,8.45,0,*4D
1499717001.22,5783,17.38,74162.3,8.97,8.45,8.45,0,*42
1499717002.44,5784,17.38,74162.5,8.97,8.45,8.55,0,*44
1499717003.69,5785,17.38,74162.3,8.97,8.55,8.47,0,*47
1499717004.91,5786,17.44,74174.3,8.95,8.41,8.41,0,*45
1499717006.08,5787,17.38,74174.8,8.95,8.45,8.45,0,*44
1499717007.3,5788,17.38,74170.0,8.95,8.47,8.41,0,*4D
1499717008.51,5789,17.38,74168.3,8.95,8.33,8.33,0,*4A
1499717009.72,5790,17.38,74178.3,8.95,8.29,8.33,0,*49
1499717010.97,5791,17.38,74160.5,8.97,8.33,8.33,0,*41
1499717012.14,5792,17.38,74128.0,8.95,8.19,8.19,0,*40
1499717013.32,5793,17.38,74118.8,8.95,8.27,8.27,0,*41
1499717014.49,5794,17.38,74134.8,8.95,8.27,8.19,0,*4B
1499717015.67,5795,17.38,74144.5,8.95,8.23,8.27,0,*43
1499717016.86,5796,17.38,74142.5,8.95,8.19,8.29,0,*47
1499717018.05,5797,17.44,74132.8,8.95,8.27,8.29,0,*4B
1499717019.26,5798,17.44,74130.3,8.95,8.29,8.29,0,*4A
1499717020.43,5799,17.38,74146.3,8.95,8.09,8.09,0,*4B
1499717021.62,5800,17.38,74130.8,8.95,7.95,7.97,0,*46
1499717022.84,5801,17.38,74122.3,8.93,8.01,7.95,0,*41
1499717024.01,5802,17.38,74118.3,8.95,8.05,8.05,0,*46
1499717025.23,5803,17.38,74138.8,8.93,8.01,7.95,0,*43
1499717026.42,5804,17.38,74144.3,8.93,8.05,8.01,0,*42
1499717027.61,5805,17.44,74132.5,8.93,8.05,8.15,0,*46
1499717028.83,5806,17.44,74148.5,8.93,8.13,8.23,0,*47
1499717030.06,5807,17.38,74146.8,8.93,7.79,7.73,0,*4F
1499717031.3,5808,17.38,74124.8,8.93,7.91,7.83,0,*49
1499717032.52,5809,17.38,74148.3,8.93,8.01,7.95,0,*49
1499717033.77,5810,17.38,74170.3,8.93,7.95,7.95,0,*43
1499717034.99,5811,17.38,74154.8,8.93,7.91,8.01,0,*44
1499717036.24,5812,17.38,74162.0,8.93,7.91,7.91,0,*41
1499717037.45,5813,17.38,74154.8,8.91,7.91,7.91,0,*42
1499717038.65,5814,17.38,74154.0,8.89,8.01,7.97,0,*4C
1499717039.84,5815,17.38,74174.8,8.91,8.05,8.13,0,*43
1499717041.07,5816,17.38,74172.3,8.91,7.61,7.61,0,*47
1499717042.31,5817,17.38,74174.8,8.89,7.69,7.69,0,*4F
1499717043.5,5818,17.38,74176.0,8.89,7.97,8.01,0,*40
1499717044.67,5819,17.38,74174.0,8.91,8.05,8.05,0,*48
1499717045.86,5820,17.38,74170.3,8.89,7.97,8.01,0,*4B
1499717047.08,5821,17.38,74168.8,8.91,7.91,7.91,0,*43
1499717048.27,5822,17.38,74172.8,8.89,7.97,8.09,0,*41
1499717049.47,5823,17.44,74180.5,8.91,8.13,8.15,0,*47
1499717050.67,5824,17.38,74190.0,8.89,7.79,7.79,0,*4F
1499717051.91,5825,17.38,74186.0,8.89,7.87,7.87,0,*4E
1499717053.08,5826,17.44,74186.0,8.91,7.51,7.59,0,*4C
1499717054.27,5827,17.38,74178.0,8.89,7.33,7.41,0,*49
1499717055.51,5828,17.38,74168.3,8.89,6.61,6.51,0,*40
1499717056.71,5829,17.44,74170.5,8.85,6.83,6.83,0,*4E
1499717057.88,5830,17.38,74170.0,8.79,6.93,6.93,0,*45
1499717059.13,5831,17.38,74170.5,8.81,7.23,7.27,0,*47
1499717060.38,5832,17.38,74180.3,8.81,7.61,7.73,0,*43
1499717061.61,5833,17.38,74192.3,8.81,7.83,7.79,0,*44
1499717062.8,5834,17.38,74188.8,8.81,8.01,8.01,0,*46
1499717064.01,5835,17.38,74172.8,8.81,7.79,7.79,0,*47
1499717065.24,5836,17.38,74190.3,8.81,7.59,7.61,0,*4F
1499717066.49,5837,17.38,74198.8,8.85,7.61,7.61,0,*41
1499717067.74,5838,17.38,74188.8,8.81,7.23,7.23,0,*4A
1499717068.96,5839,17.38,74182.3,8.79,6.91,6.91,0,*4C
1499717070.16,5840,17.44,74156.8,8.77,6.79,6.79,0,*4C
1499717071.38,5841,17.44,74168.0,8.77,6.79,6.87,0,*4C
1499717072.6,5842,17.38,74140.0,8.75,7.01,6.91,0,*44
1499717073.82,5843,17.38,74154.0,8.75,7.09,7.11,0,*44
1499717075.06,5844,17.38,74166.0,8.75,7.19,7.19,0,*4A
1499717076.26,5845,17.38,74164.5,8.75,7.29,7.33,0,*40
1499717077.45,5846,17.38,74158.0,8.75,7.59,7.59,0,*48
1499717078.65,5847,17.38,74164.3,8.71,7.59,7.59,0,*4D
1499717079.88,5848,17.44,74158.3,8.73,7.77,7.77,0,*40
1499717081.1,5849,17.38,74154.8,8.73,7.73,7.73,0,*41
1499717082.31,5850,17.38,74152.5,8.73,7.83,7.83,0,*49
1499717083.48,5851,17.38,74152.8,8.73,7.97,7.97,0,*48
1499717084.65,5852,17.38,74152.5,8.73,8.05,8.05,0,*4B
1499717085.81,5853,17.38,74150.3,8.73,8.05,8.05,0,*4A
1499717086.98,5854,17.38,74152.0,8.73,8.05,8.09,0,*41
1499717088.18,5855,17.44,74154.8,8.77,8.01,8.09,0,*40
1499717089.37,5856,17.38,74150.3,8.75,8.01,8.09,0,*41
1499717090.56,5857,17.38,74148.0,8.75,8.09,8.01,0,*40
1499717091.81,5858,17.38,74152.5,8.77,7.65,7.65,0,*45
1499717093.06,5859,17.38,74140.3,8.77,7.65,7.65,0,*44
1499717094.26,5860,17.38,74142.5,8.75,7.79,7.79,0,*4C
1499717095.45,5861,17.44,74148.8,8.75,7.97,7.97,0,*4D
1499717096.67,5862,17.38,74148.0,8.75,7.91,7.97,0,*48
1499717097.91,5863,17.38,74154.0,8.75,7.87,7.87,0,*4F
1499717099.1,5864,17.38,74156.8,8.75,7.97,7.97,0,*48
1499717100.3,5865,17.38,74162.8,8.77,8.09,8.01,0,*43
1499717101.52,5866,17.38,74162.5,8.75,8.09,8.13,0,*41
1499717102.72,5867,17.38,74168.0,8.75,8.09,8.15,0,*46
1499717103.97,5868,17.38,74170.0,8.75,8.13,8.13,0,*44
1499717105.16,5869,17.38,74172.3,8.75,8.09,8.01,0,*4D
1499717106.36,5870,17.38,74182.0,8.75,8.09,8.01,0,*45
1499717107.55,5871,17.38,74184.8,8.75,8.01,8.01,0,*4C
1499717108.75,5872,17.38,74178.0,8.77,8.09,8.09,0,*4D
1499717109.95,5873,17.38,74166.5,8.75,8.01,8.09,0,*46
1499717111.19,5874,17.44,74162.5,8.75,7.91,7.91,0,*49
1499717112.42,5875,17.44,74158.8,8.79,7.91,7.95,0,*40
1499717113.66,5876,17.38,74170.5,8.75,7.65,7.65,0,*4B
1499717114.86,5877,17.38,74164.5,8.77,8.09,8.09,0,*48
1499717116.05,5878,17.38,74164.3,8.75,8.09,8.09,0,*45
1499717117.27,5879,17.38,74170.0,8.75,8.09,8.13,0,*4F
1499717118.47,5880,17.38,74168.5,8.77,8.01,8.09,0,*48
1499717119.68,5881,17.38,74170.8,8.69,-1.13,-1.33,0,*4C
1499717120.9,5882,17.38,74172.5,8.63,5.55,5.49,0,*4A
1499717122.12,5883,17.38,74170.8,8.63,7.09,7.15,0,*4B
1499717123.36,5884,17.38,74174.5,8.63,7.55,7.61,0,*46
1499717124.61,5885,17.38,74184.0,8.59,7.73,7.69,0,*42
1499717125.86,5886,17.44,74180.8,8.63,7.87,7.95,0,*40
1499717127.11,5887,17.44,74172.5,8.63,7.95,7.95,0,*42
1499717128.37,5888,17.38,74180.5,8.63,7.95,7.95,0,*4D
1499717129.6,5889,17.38,74200.3,8.65,7.95,7.95,0,*4A
1499717130.85,5890,17.38,74214.0,8.63,7.95,7.95,0,*44
1499717132.1,5891,17.38,74192.5,8.63,7.65,7.73,0,*42
1499717133.34,5892,17.38,74180.0,8.65,7.73,7.73,0,*40
1499717134.58,5893,17.38,74182.0,8.63,7.87,7.87,0,*47
1499717135.81,5894,17.38,74182.5,8.65,7.87,7.95,0,*45
1499717137.04,5895,17.38,74186.3,8.65,7.95,7.95,0,*47
1499717138.23,5896,17.38,74194.5,8.63,0.01,-0.15,0,*5A
1499717139.42,5897,17.38,74198.8,8.55,5.49,5.41,0,*4E
1499717140.62,5898,17.38,74212.0,8.53,7.09,7.11,0,*46
1499717141.84,5899,17.44,74196.0,8.55,7.45,7.47,0,*4A
1499717143.03,5900,17.38,74192.3,8.55,7.59,7.59,0,*49
1499717144.26,5901,17.38,74196.5,8.53,7.69,7.73,0,*45
1499717145.46,5902,17.38,74206.0,8.57,7.69,7.79,0,*48
1499717146.66,5903,17.38,74206.8,8.57,7.79,7.87,0,*49
1499717147.86,5904,17.38,74198.3,8.57,7.79,7.87,0,*4E
1499717149.08,5905,17.44,74208.5,8.59,7.83,7.79,0,*45
1499717150.28,5906,17.38,74198.3,8.57,7.61,7.55,0,*4A
1499717151.45,5907,17.38,74210.0,8.57,7.45,7.37,0,*49
1499717152.67,5908,17.44,74210.5,8.59,7.47,7.41,0,*4B
1499717153.9,5909,17.38,74180.3,8.59,7.29,5.81,0,*4C
1499717155.13,5910,17.38,74204.0,8.53,3.15,3.11,0,*4A
1499717156.34,5911,17.44,74206.0,8.47,6.29,6.33,0,*41
1499717157.56,5912,17.38,74200.8,8.47,6.91,7.01,0,*41
1499717158.81,5913,17.38,74202.0,8.47,7.11,7.11,0,*48
1499717160.06,5914,17.38,74204.0,8.47,7.11,7.11,0,*4F
1499717161.26,5915,17.44,74214.8,8.49,7.29,7.27,0,*4E
1499717162.48,5916,17.38,74198.3,8.49,7.27,7.19,0,*4E
1499717163.73,5917,17.38,74200.5,8.51,7.23,7.15,0,*4E
1499717164.9,5918,17.38,74188.5,8.49,7.01,6.93,0,*47
1499717166.12,5919,17.38,74210.0,8.49,7.19,7.19,0,*4C
1499717167.37,5920,17.38,74210.8,8.51,7.23,7.23,0,*4F
1499717168.53,5921,17.38,74208.5,8.49,7.37,7.41,0,*46
1499717169.76,5922,17.38,74204.8,8.49,7.19,7.19,0,*44
1499717170.95,5923,17.38,74208.8,8.49,6.79,6.69,0,*44
1499717172.16,5924,17.38,74204.3,8.49,6.61,6.57,0,*47
1499717173.38,5925,17.38,74208.5,8.49,6.61,6.57,0,*46
1499717174.58,5926,17.38,74216.3,8.47,6.33,6.21,0,*4D
1499717175.78,5927,17.38,74212.3,8.47,5.99,6.07,0,*4B
1499717176.99,5928,17.38,74206.8,8.47,6.29,6.21,0,*48
1499717178.19,5929,17.44,74204.3,8.45,5.73,5.67,0,*46
1499717179.4,5930,17.38,74196.5,8.39,5.77,5.77,0,*40
1499717180.6,5931,17.38,74196.5,8.41,6.25,6.21,0,*4A
1499717181.82,5932,17.44,74200.3,8.39,6.39,6.35,0,*4E
1499717183.05,5933,17.38,74202.3,8.39,6.51,6.47,0,*44
1499717184.26,5934,17.38,74208.0,8.35,6.65,6.57,0,*49
1499717185.43,5935,17.38,74208.0,8.35,6.79,6.79,0,*49
1499717186.62,5936,17.38,74204.5,8.33,6.75,6.75,0,*4C
1499717187.81,5937,17.38,74204.3,8.35,6.87,6.79,0,*4A
1499717189.03,5938,17.38,74204.3,8.33,6.91,6.97,0,*44
1499717190.2,5939,17.38,74202.3,8.35,7.59,7.59,0,*45
1499717191.42,5940,17.38,74188.8,8.39,7.69,7.69,0,*47
1499717192.64,5941,17.44,74188.8,8.39,7.73,7.77,0,*42
1499717193.87,5942,17.38,74180.5,8.39,7.73,7.77,0,*41
1499717195.1,5943,17.38,74174.8,8.45,7.95,7.95,0,*4F
1499717196.3,5944,17.38,74172.5,8.45,8.13,8.15,0,*4E
1499717197.53,5945,17.38,74182.5,8.45,8.33,8.37,0,*4D
1499717198.78,5946,17.38,74190.3,8.47,8.51,8.51,0,*48
1499717200.01,5947,17.38,74192.5,8.47,8.47,8.45,0,*4B
1499717201.23,5948,17.38,74196.3,8.49,8.47,8.55,0,*4B
1499717202.45,5949,17.38,74198.0,8.51,4.67,3.59,0,*4A
1499717203.69,5950,17.38,74192.3,8.47,6.33,6.43,0,*48
1499717204.91,5951,17.38,74198.5,8.45,8.47,8.51,0,*4B
1499717206.16,5952,17.38,74194.8,8.47,8.47,8.51,0,*4A
1499717207.36,5953,17.38,74178.3,8.47,8.61,8.69,0,*44
1499717208.56,5954,17.38,74170.5,8.49,6.65,6.79,0,*48
1499717209.78,5955,17.38,74146.3,8.51,8.13,8.19,0,*47
1499717210.98,5956,17.38,74146.0,8.51,8.69,8.87,0,*4E
1499717212.18,5957,17.38,74136.0,8.51,9.07,9.07,0,*4F
1499717213.38,5958,17.38,74132.3,8.55,8.79,8.83,0,*41
1499717214.6,5959,17.38,74124.5,8.55,8.83,8.89,0,*4F
1499717215.78,5960,17.38,74118.8,8.57,8.79,8.83,0,*48
1499717217.0,5961,17.38,74118.3,8.59,8.65,8.71,0,*47
1499717218.19,5962,17.38,74118.8,8.59,8.65,8.65,0,*41
1499717219.44,5963,17.38,74122.5,8.59,8.59,8.59,0,*40
1499717220.64,5964,17.38,74124.3,8.57,8.37,8.27,0,*48
1499717221.87,5965,17.38,74130.5,8.63,8.19,8.29,0,*4C
1499717223.11,5966,17.38,74124.5,8.63,8.29,8.29,0,*4C
1499717224.33,5967,17.38,74128.8,8.63,8.45,8.41,0,*49
1499717225.55,5968,17.38,74130.8,8.63,8.45,8.33,0,*43
1499717226.76,5969,17.38,74128.8,8.65,8.55,8.61,0,*42
1499717227.95,5970,17.38,74132.0,8.65,8.69,8.75,0,*40
1499717229.12,5971,17.38,74126.3,8.65,8.61,8.69,0,*44
1499717230.35,5972,17.38,74122.3,8.65,8.51,8.51,0,*4F
1499717231.6,5973,17.38,74126.0,8.67,8.59,8.59,0,*4C
1499717232.85,5974,17.38,74126.5,8.67,8.55,8.55,0,*4B
1499717234.08,5975,17.38,74128.8,8.67,8.45,8.55,0,*4B
1499717235.28,5976,17.44,74136.0,8.67,8.45,8.45,0,*49
1499717236.53,5977,17.38,74134.3,8.71,8.41,8.41,0,*4F
1499717237.72,5978,17.38,74142.5,8.69,8.45,8.47,0,*4B
1499717238.93,5979,17.38,74146.3,8.69,8.13,8.15,0,*4E
1499717240.15,5980,17.38,74148.8,8.69,8.33,8.33,0,*4E
1499717241.35,5981,17.38,74146.8,8.69,6.97,6.53,0,*47
1499717242.6,5982,17.38,74148.5,8.67,7.19,7.19,0,*42
1499717243.84,5983,17.38,74142.5,8.67,7.91,7.91,0,*43
1499717245.1,5984,17.38,74150.0,8.67,8.13,8.13,0,*44
1499717246.35,5985,17.38,74144.0,8.67,8.37,8.37,0,*45
1499717247.57,5986,17.38,74122.5,8.71,8.27,8.37,0,*40
1499717248.78,5987,17.38,74116.8,8.69,8.27,8.33,0,*4C
1499717250.0,5988,17.38,74108.5,8.69,8.33,8.33,0,*46
1499717251.21,5989,17.38,74110.3,8.69,8.27,8.33,0,*42
1499717252.45,5990,17.38,74114.3,8.67,8.33,8.33,0,*41
1499717253.68,5991,17.38,74126.3,8.69,8.33,8.37,0,*4A
1499717254.91,5992,17.38,74134.3,8.69,8.33,8.37,0,*49
1499717256.11,5993,17.38,74136.5,8.69,8.37,8.45,0,*49
1499717257.29,5994,17.38,74140.0,8.69,8.23,8.23,0,*4B
1499717258.47,5995,17.38,74150.8,8.69,8.23,8.23,0,*4A
1499717259.64,5996,17.38,74158.3,8.69,8.23,8.23,0,*49
1499717260.83,5997,17.38,74158.0,8.69,8.27,8.27,0,*48
1499717262.05,5998,17.38,74140.3,8.69,8.33,8.33,0,*47
1499717263.27,5999,17.38,74112.5,8.71,8.61,8.59,0,*44
1499717264.5,6000,17.38,74132.3,8.71,8.59,8.61,0,*4E
1499717265.73,6001,17.38,74144.0,8.71,8.29,8.29,0,*44
1499717266.93,6002,17.38,74144.8,8.73,8.13,8.19,0,*4F
1499717268.13,6003,17.38,74140.0,8.71,8.09,8.15,0,*4B
1499717269.32,6004,17.38,74144.8,8.71,8.09,8.15,0,*4C
1499717270.52,6005,17.38,74144.3,8.71,8.09,8.09,0,*40
1499717271.69,6006,17.38,74146.5,8.73,8.23,8.23,0,*41
1499717272.88,6007,17.38,74136.8,8.73,8.23,8.29,0,*4A
1499717274.12,6008,17.38,74140.8,8.71,8.29,8.29,0,*4D
1499717275.33,6009,17.38,74136.8,8.71,8.27,8.27,0,*4C
1499717276.5,6010,17.38,74142.3,8.73,8.19,8.19,0,*46
1499717277.7,6011,17.38,74138.3,8.71,8.19,8.19,0,*45
1499717278.88,6012,17.38,74134.0,8.73,8.27,8.27,0,*44
1499717280.09,6013,17.38,74136.0,8.71,8.19,8.27,0,*4A
1499717281.29,6014,17.38,74136.8,8.73,8.41,8.45,0,*46
1499717282.48,6015,17.38,74134.0,8.73,8.65,8.55,0,*40
1499717283.65,6016,17.38,74136.8,8.73,8.79,8.79,0,*40
1499717284.83,6017,17.38,74146.5,8.73,8.79,8.87,0,*40
1499717286.03,6018,17.38,74138.3,8.75,8.83,8.83,0,*48
1499717287.22,6019,17.38,74136.0,8.75,8.83,8.83,0,*49
1499717288.45,6020,17.38,74142.0,8.77,8.83,8.89,0,*4B
1499717289.63,6021,17.38,74146.3,8.79,9.03,9.07,0,*4A
1499717290.86,6022,17.38,74150.3,8.77,8.83,8.89,0,*49
1499717292.11,6023,17.38,74158.8,8.77,8.75,8.75,0,*42
1499717293.35,6024,17.38,74156.5,8.77,8.75,8.75,0,*45
1499717294.53,6025,17.38,74152.8,8.79,8.87,8.87,0,*4A
1499717295.74,6026,17.38,74150.3,8.81,8.79,8.87,0,*4F
1499717296.94,6027,17.38,74156.3,8.81,8.79,8.79,0,*4F
1499717298.14,6028,17.38,74154.5,8.81,8.79,8.79,0,*40
1499717299.33,6029,17.38,74160.5,8.81,8.69,8.69,0,*41
1499717300.55,6030,17.38,74164.0,8.81,8.61,8.59,0,*42
1499717301.75,6031,17.38,74162.5,8.81,8.61,8.61,0,*48
1499717302.94,6032,17.38,74164.3,8.85,8.65,8.65,0,*4F
1499717304.13,6033,17.38,74164.8,8.85,8.65,8.65,0,*4E
1499717305.37,6034,17.38,74162.3,8.85,8.71,8.75,0,*4D
1499717306.61,6035,17.38,74156.0,8.85,8.75,8.75,0,*48
1499717307.81,6036,17.38,74142.3,8.85,8.83,8.87,0,*4F
1499717309.06,6037,17.38,74136.3,8.85,8.89,8.89,0,*4A
1499717310.25,6038,17.38,74134.3,8.87,9.03,9.15,0,*40
1499717311.45,6039,17.38,74130.3,8.87,9.01,9.03,0,*44
1499717312.7,6040,17.38,74136.5,8.85,8.89,8.89,0,*4A
1499717313.87,6041,17.38,74140.5,8.87,8.87,8.87,0,*49
1499717315.11,6042,17.38,74146.5,8.89,8.75,8.75,0,*44
1499717316.3,6043,17.38,74136.5,8.89,8.65,8.69,0,*49
1499717317.49,6044,17.38,74146.5,8.89,8.65,8.69,0,*4E
1499717318.74,6045,17.38,74140.5,8.89,8.89,8.89,0,*43
1499717319.91,6046,17.38,74146.5,8.91,8.79,8.83,0,*4C
1499717321.11,6047,17.38,74148.3,8.91,8.97,9.03,0,*44
1499717322.31,6048,17.38,74136.8,8.89,8.87,8.87,0,*4E
1499717323.53,6049,17.38,74132.0,8.91,8.89,8.89,0,*46
1499717324.75,6050,17.38,74140.5,8.91,8.89,8.89,0,*4E
1499717325.92,6051,17.38,74132.5,8.91,8.79,8.79,0,*4F
1499717327.1,6052,17.38,74148.0,8.91,8.79,8.83,0,*49
1499717328.29,6053,17.38,74146.0,8.91,8.69,8.75,0,*40
1499717329.46,6054,17.38,74154.8,8.91,8.79,8.83,0,*4F
1499717330.64,6055,17.38,74158.8,8.91,8.83,8.83,0,*4B
1499717331.81,6056,17.38,74152.5,8.91,8.83,8.83,0,*48
1499717333.01,6057,17.38,74158.8,8.93,8.79,8.79,0,*4B
1499717334.2,6058,17.38,74164.0,8.93,8.83,8.83,0,*44
1499717335.42,6059,17.38,74166.5,8.93,8.83,8.97,0,*40
1499717336.64,6060,17.38,74164.5,8.95,9.01,9.01,0,*49
1499717337.86,6061,17.38,74166.8,8.93,8.97,9.03,0,*42
1499717339.11,6062,17.38,74160.0,8.93,8.89,8.89,0,*4D